Flag for USA

Past Weather in Huntington, Indiana, USA — Yesterday and Last 2 Weeks

Now
73 °F

Overcast.


Feels Like: 77 °F
Forecast: 78 / 49 °F
Wind: 12 mph from West

Location: Fort Wayne International Airport
Current Time: Sep 23, 2020 at 6:32:29 pm
Latest Report: Sep 23, 2020 at 5:54 pm
Visibility: 10 mi
Pressure30.02 "Hg
Humidity: 53%
Dew Point: 55 °F
Location of HuntingtonLocation

Past Weather in Huntington — Graph

°F

Huntington Temperature Yesterday

Maximum temperature yesterday: 76 °F (at 3:54 pm)
Minimum temperature yesterday: 42 °F (at 6:54 am)
Average temperature yesterday: 58 °F

High & Low Weather Summary for the Past Weeks

 TemperatureHumidityPressure
High80 °F (Sep 9, 4:54 pm)100% (Sep 9, 2:44 am)30.49 "Hg (Sep 9, 2:44 am)
Low38 °F (Sep 19, 6:54 am)29% (Sep 20, 4:54 pm)29.91 "Hg (Sep 13, 2:54 am)
Average61 °F78%30.21 "Hg
* Reported Sep 8 4:54 pm — Sep 23 4:54 pm, Huntington. Weather by CustomWeather, © 2020

Note: Actual official high and low records may vary slightly from our data, if they occured in-between our weather recording intervals... More about our weather records

Huntington Weather History for the Previous 24 Hours

Scroll right to see more
 ConditionsComfort  
Time TempWeatherWind HumidityBarometerVisibility
4:54 pm
Wed, Sep 23
74 °FOvercast.13 mph52%30.02 "Hg10 mi
3:54 pm74 °FPartly sunny.10 mph52%30.03 "Hg10 mi
2:54 pm75 °FPartly sunny.9 mph52%30.03 "Hg10 mi
1:54 pm75 °FPartly sunny.10 mph50%30.06 "Hg10 mi
12:54 pm73 °FPartly sunny.9 mph55%30.09 "Hg10 mi
11:54 am71 °FPartly sunny.8 mph59%30.10 "Hg10 mi
10:54 am66 °FPartly sunny.6 mph70%30.11 "Hg10 mi
9:54 am61 °FScattered clouds.6 mph78%30.10 "Hg10 mi
8:54 am56 °FPassing clouds.6 mph90%30.10 "Hg10 mi
7:54 am50 °FLight fog.8 mph93%30.11 "Hg8 mi
6:54 am49 °FLight fog.5 mph97%30.09 "Hg10 mi
5:54 am50 °FPassing clouds.6 mph93%30.08 "Hg9 mi
4:54 am51 °FPassing clouds.5 mph92%30.08 "Hg10 mi
3:54 am53 °FPassing clouds.3 mph86%30.08 "Hg10 mi
2:54 am53 °FPassing clouds.6 mph89%30.09 "Hg10 mi
1:54 am55 °FPassing clouds.7 mph87%30.08 "Hg10 mi
12:54 am52 °FPassing clouds.7 mph89%30.09 "Hg10 mi
11:54 pm
Tue, Sep 22
55 °FPassing clouds.6 mph83%30.10 "Hg10 mi
10:54 pm55 °FPassing clouds.6 mph83%30.11 "Hg10 mi
9:54 pm55 °FPassing clouds.3 mph83%30.11 "Hg10 mi
8:54 pm60 °FPassing clouds.3 mph75%30.11 "Hg10 mi
7:54 pm61 °FPassing clouds.3 mph75%30.11 "Hg10 mi
6:54 pm68 °FPassing clouds.3 mph68%30.12 "Hg10 mi
Weather by CustomWeather, © 2020

See weather overview